#timestamp,LO_Frequency,Hit,StdDev 
1508396415.8,286046997.2,N
1508396435.6,286046997.5,N
1508396455.5,286046998.0,N
1508396475.3,286046998.4,N
1508396495.1,286046997.1,N
1508396515.9,286046993.4,Y
1508396535.7,286046999.4,P
1508396555.5,286047004.2,P
1508396575.4,286047004.4,N
1508396595.2,286046999.7,N
1508396615.0,286047002.6,N
1508396615.9,286047002.6,N
1508396635.8,286047003.6,N
1508396655.6,286047004.5,N
1508396675.4,286047006.1,N
1508396695.3,286047009.1,Y
1508396715.1,286047005.8,P
1508396716.0,286047005.8,P
1508396735.8,286047005.7,P
1508396755.7,286047003.4,N
1508396775.5,286047003.9,N
1508396795.3,286047000.8,N
1508396815.2,286047001.7,N
1508396835.9,286047003.3,N
1508396855.7,286047005.6,Y
1508396875.6,286046998.5,P
1508396895.4,286046996.9,N
1508396915.2,286046995.3,N
1508396935.0,286046993.9,N
1508396935.9,286046993.9,N
1508396955.8,286046993.4,N
1508396975.6,286046997.9,N
1508396995.4,286046995.7,N
1508397015.3,286046997.5,N
1508397035.1,286046998.0,N
1508397055.8,286046996.7,N
1508397075.7,286047002.0,N
1508397095.5,286046999.2,N
1508397115.3,286046994.6,N
1508397135.2,286046993.0,N
1508397155.9,286046993.9,N
1508397175.7,286046993.0,N
1508397195.6,286046990.6,Y
1508397215.4,286046994.3,P
1508397235.2,286046995.7,P
1508397255.1,286046998.4,N
1508397256.0,286046998.4,N
1508397275.8,286046998.0,N
1508397295.6,286046998.3,N
1508397315.5,286046996.0,N
1508397335.3,286046993.9,Y
1508397355.1,286046997.8,P
1508397375.9,286047000.0,N
1508397395.7,286047000.6,N
1508397415.5,286047003.8,N
1508397435.4,286047003.3,N
1508397455.2,286047003.7,N
1508397475.0,286046998.7,N
1508397475.9,286046998.7,N
1508397495.7,286046999.3,N
1508397515.6,286046998.1,N
1508397535.4,286047004.5,N
1508397555.2,286047003.4,N
1508397575.1,286047006.9,N
1508397576.0,286047006.9,N
1508397595.8,286047005.4,N
1508397615.6,286047003.8,N
1508397635.5,286047003.3,N
1508397655.3,286047002.0,N
1508397675.1,286047001.1,N
1508397695.9,286047001.3,N
1508397715.7,286047003.3,N
1508397735.5,286047002.0,N
1508397755.4,286047000.9,N
1508397775.2,286047000.7,N
1508397795.0,286047001.1,N
1508397795.9,286047001.1,N
1508397815.7,286047001.1,N
1508397835.6,286047001.0,N
1508397855.4,286047002.3,N
1508397875.2,286047005.4,N
1508397895.1,286047007.2,Y
1508397896.0,286047007.2,P
1508397915.8,286047001.7,N
1508397935.6,286047002.2,N
1508397955.5,286046999.7,N
1508397975.3,286046996.6,N
1508397995.1,286046999.1,N
1508398015.9,286047000.8,N
1508398035.7,286047000.3,N
1508398055.5,286046999.1,N
1508398075.4,286046998.8,N
1508398095.2,286047001.4,N
1508398115.0,286047001.6,N
1508398115.9,286047001.6,N
1508398135.8,286046998.8,N
1508398155.6,286046999.9,N
1508398175.4,286046999.1,N
1508398195.3,286046998.7,N
1508398215.1,286046996.6,N
1508398216.0,286046996.6,N
1508398235.8,286046997.4,N
1508398255.7,286046999.5,N
1508398275.5,286046997.9,N
1508398295.3,286046993.7,N
1508398315.1,286046995.1,N
1508398335.9,286046997.3,N
1508398355.7,286046997.8,N
1508398375.5,286046996.2,N
1508398395.4,286046994.4,N
1508398415.2,286046995.7,N
1508398435.0,286046995.0,N
1508398435.9,286046995.0,N
1508398455.8,286046995.0,N
1508398475.6,286046996.5,N
1508398495.4,286046994.3,N
1508398515.3,286046993.0,Y
1508398535.1,286046996.5,P
1508398555.8,286046996.7,P
1508398575.7,286047002.4,P
1508398595.5,286047001.0,N
1508398615.3,286046999.1,N
1508398635.2,286046995.4,N
1508398655.9,286046998.0,N
1508398675.7,286046997.0,N
1508398695.6,286047000.0,N
1508398715.4,286047000.5,N
1508398735.2,286047003.9,N
1508398755.1,286047000.7,N
1508398756.0,286047000.7,N
1508398775.8,286047000.7,N
1508398795.6,286047001.0,N
1508398815.5,286046999.8,N
1508398835.3,286046999.7,N
1508398855.1,286047001.2,N
1508398875.9,286047000.1,N
1508398895.7,286046999.0,N
1508398915.5,286046995.5,N
1508398935.4,286046993.3,Y
1508398955.2,286046998.0,P
1508398975.0,286047000.9,N
1508398975.9,286047000.9,N
1508398995.8,286046999.4,N
1508399015.6,286046999.9,N
1508399035.4,286046993.7,Y
1508399055.3,286046997.8,P
1508399075.1,286046996.4,P
1508399095.8,286046992.1,P
1508399115.7,286046994.8,N
1508399135.5,286046991.7,Y
1508399155.3,286046995.7,P
1508399175.2,286046996.8,P
1508399195.0,286046997.3,P
1508399195.9,286046997.3,Y
1508399215.8,286047005.4,P
1508399235.6,286047005.2,N
1508399255.4,286047009.0,N
1508399275.3,286047014.0,Y
1508399295.1,286047004.5,P
1508399296.0,286047004.5,P
1508399315.8,286047001.9,P
1508399335.7,286047005.3,Y
1508399355.5,286047001.3,P
1508399375.3,286047000.2,N
1508399395.2,286047001.2,N
1508399415.0,286047002.4,N
1508399415.9,286047002.4,N
1508399435.7,286046998.1,N
1508399455.6,286046997.7,N
1508399475.4,286046998.0,N
1508399495.2,286046998.8,N
1508399515.1,286046997.5,N
1508399516.0,286046997.5,N
1508399535.8,286046996.8,N
1508399555.6,286046997.9,N
1508399575.5,286046995.7,N
1508399595.3,286047002.7,N
1508399615.1,286046998.5,N
1508399635.9,286046995.0,N
1508399655.7,286046997.0,N
1508399675.5,286047000.0,N
1508399695.4,286047005.2,N
1508399715.2,286047000.8,N
1508399735.0,286047001.0,N
1508399735.9,286047001.0,N
1508399755.8,286047000.9,N
1508399775.6,286046999.2,N
1508399795.4,286046999.5,N
1508399815.3,286046994.9,N
1508399835.1,286046999.6,N
1508399836.0,286046999.6,N
1508399855.8,286046996.6,N
1508399875.7,286046995.1,N
1508399895.5,286046993.8,N
1508399915.3,286046996.0,N
1508399935.2,286046997.3,N
1508399955.9,286047002.1,N
1508399975.7,286047004.3,N
1508399995.6,286046996.9,N
